Regional Weather Roundup
Issued by NWS

Home | Current Version | Previous Version | Text Only | Print | Product List | Glossary Off
Versions: 1 2 3 4 5 6 7 8 9 10 11 12 13 14 15 16 17 18 19 20 21 22 23 24 25 26 27 28 29 30 31 32 33 34 35 36 37 38 39 40 41 42 43 44 45 46 47 48 49 50

000
ASUS43 KOAX 271410
RWRNE

WEATHER ROUNDUP FOR NEBRASKA
NATIONAL WEATHER SERVICE OMAHA NE
900 AM CDT MON APR 27 2015

NOTES: SATELLITE DATA IS BEING USED TO AUGMENT CLOUD COVER ABOVE
       12000 FEET.
       "FAIR" INDICATES FEW OR NO CLOUDS BELOW 12,000 FEET WITH NO
       SIGNIFICANT WEATHER AND/OR OBSTRUCTIONS TO VISIBILITY.

  * THESE STATIONS DO NOT REPORT WEATHER SUCH AS RAIN...SNOW OR FOG.

NEZ001>004-019>022-054>056-271500-
NEBRASKA PANHANDLE

CITY           SKY/WX    TMP DP  RH WIND       PRES   REMARKS
SCOTTSBLUFF    CLOUDY    46  40  79 CALM      30.24R
ALLIANCE       PTSUNNY   46  40  79 N3        30.23R
CHADRON        PTSUNNY   46  42  86 W7        30.24R
KIMBALL        CLOUDY    41  40  98 E7        30.21R FOG
SIDNEY         CLOUDY    44  40  85 NE7       30.23R
$$

NEZ057>060-069>072-079>082-271500-
SOUTHWEST NEBRASKA

CITY           SKY/WX    TMP DP  RH WIND       PRES   REMARKS
IMPERIAL       MOSUNNY   46  39  76 NE6       30.20R
LEXINGTON      PTSUNNY   46  42  85 N8        30.20S
MCCOOK         CLOUDY    46  38  73 N8        30.19R
OGALLALA       MOSUNNY   48  41  75 NE5       30.22R
$$

NEZ005>010-023>029-035>040-094-271500-
NORTH CENTRAL NEBRASKA

CITY           SKY/WX    TMP DP  RH WIND       PRES   REMARKS
VALENTINE      MOSUNNY   45  36  70 W5        30.24R
AINSWORTH      MOSUNNY   48  40  74 NW5       30.23R
BROKEN BOW     MOSUNNY   51  41  68 N10       30.21R
O`NEILL        SUNNY     51  38  61 W6        30.21S
ORD            MOSUNNY   46  38  73 N6        30.21R
THEDFORD       SUNNY     45  42  91 CALM      30.24R
$$

NEZ041-046>049-061>064-073>077-083>087-271500-
SOUTH CENTRAL NEBRASKA

CITY           SKY/WX    TMP DP  RH WIND       PRES   REMARKS
GRAND ISLAND   MOSUNNY   48  38  68 NE7       30.21S
AURORA         PTSUNNY   49  41  73 NE8       30.20S
HASTINGS       CLOUDY    46  38  73 NE7       30.19R
HEBRON         CLOUDY    46  36  68 NE7       30.18R
HOLDREGE       CLOUDY    43  38  82 N9        30.18S
KEARNEY *      CLOUDY    45  37  76 N8        30.20S
YORK           PTSUNNY   48  41  76 NE6       30.21S
$$

NEZ011>018-030>034-042>045-271500-
NORTHEAST NEBRASKA

CITY           SKY/WX    TMP DP  RH WIND       PRES   REMARKS
NORFOLK        SUNNY     50  38  63 CALM      30.21S
ALBION         SUNNY     48  39  72 CALM      30.21S
BLAIR          SUNNY     49  36  58 N8        30.20S
COLUMBUS *     SUNNY     48  36  61 CALM      30.23S
FREMONT        SUNNY     50  40  68 CALM      30.21S
TEKAMAH        SUNNY     51  39  63 N8        30.22R
WAYNE          SUNNY     47  36  64 CALM      30.22S
$$

NEZ050>053-065>068-078-088>093-271500-
SOUTHEAST NEBRASKA

CITY           SKY/WX    TMP DP  RH WIND       PRES   REMARKS
LINCOLN        MOSUNNY   50  39  66 N6        30.22R
OMAHA EPPLEY   PTSUNNY   47  38  71 N8        30.21R
BEATRICE       CLOUDY    46  38  75 NE8       30.18S
FALLS CITY     CLOUDY    48  39  71 NW3       30.17S
NEBRASKA CITY  MOSUNNY   48  33  54 N6        30.19S
PLATTSMOUTH    MOSUNNY   49  36  59 N3        30.21R
$$

NEZ044-045-051>053-067-271500-
OMAHA AREA

CITY           SKY/WX    TMP DP  RH WIND       PRES   REMARKS
OMAHA EPPLEY   PTSUNNY   47  38  71 N8        30.21R
BLAIR          SUNNY     49  36  58 N8        30.20S
FREMONT        SUNNY     50  40  68 CALM      30.21S
MILLARD        SUNNY     52  35  51 CALM      30.21R
OFFUTT AFB     SUNNY     51  38  60 VRB2      30.20R
PLATTSMOUTH    MOSUNNY   49  36  59 N3        30.21R
WAHOO          FAIR      49  39  67 N3        30.21R
$$



USA.gov is the U.S. government's official web portal to all federal, state and local government web resources and services.